GW0378 Weather Reports


time (UTC)temp
C
wind
direction
speed
KPH
gust
KPH
rain 1hr
cm
rain 24hr
cm
rain mn
cm
humidity
%
barometer
mb
20260831052818 11 100 9.7 11.3 0.00 0.00 0.00 55 1018.7
20260831052317 11 97 6.4 8.0 0.00 0.00 0.00 56 1018.5
20260831051815 11 110 4.8 4.8 0.00 0.00 0.00 57 1018.5
20260831051314 11 111 4.8 6.4 0.00 0.00 0.00 56 1018.2
20260831050809 11 114 9.7 11.3 0.00 0.00 0.00 54 1018.6
20260831050307 11 119 6.4 8.0 0.00 0.00 0.00 56 1018.6
20260831045802 11 105 3.2 4.8 0.00 0.00 0.00 57 1018.6
20260831045257 12 120 4.8 6.4 0.00 0.00 0.00 53 1018.3
20260831044752 12 87 4.8 6.4 0.00 0.00 0.00 53 1018.6
20260831044246 12 90 8.0 9.7 0.00 0.00 0.00 53 1018.6
20260831043742 12 97 4.8 6.4 0.00 0.00 0.00 54 1018.3
20260831043237 12 106 3.2 4.8 0.00 0.00 0.00 52 1018.5
20260831042736 12 108 8.0 11.3 0.00 0.00 0.00 53 1018.3
20260831042231 12 90 1.6 8.0 0.00 0.00 0.00 52 1018.2
20260831041726 12 107 4.8 8.0 0.00 0.00 0.00 50 1018.3
20260831041226 12 110 3.2 8.0 0.00 0.00 0.00 51 1018.2
20260831040721 12 104 8.0 9.7 0.00 0.00 0.00 53 1018.1
20260831040220 12 113 3.2 4.8 0.00 0.00 0.00 50 1018.2
20260831035719 13 99 0.0 0.0 0.00 0.00 0.00 47 1018.2
20260831035213 13 173 1.6 3.2 0.00 0.00 0.00 49 1018.2
20260831034712 13 180 3.2 4.8 0.00 0.00 0.00 49 1018.0
20260831034208 13 127 3.2 4.8 0.00 0.00 0.00 51 1018.1
20260831033703 13 139 3.2 3.2 0.00 0.00 0.00 50 1017.9
20260831033203 13 120 0.0 3.2 0.00 0.00 0.00 48 1018.1
20260831032658 13 180 0.0 4.8 0.00 0.00 0.00 48 1017.9
20260831032153 13 109 3.2 3.2 0.00 0.00 0.00 48 1017.8
20260831031648 13 112 3.2 4.8 0.00 0.00 0.00 49 1017.8
20260831031147 13 111 0.0 3.2 0.00 0.00 0.00 48 1017.7
20260831030646 14 115 3.2 4.8 0.00 0.00 0.00 48 1017.6
20260831030145 15 135 0.0 3.2 0.00 0.00 0.00 45 1017.6
20260831025644 14 103 1.6 3.2 0.00 0.00 0.00 48 1017.2
20260831025139 15 135 3.2 4.8 0.00 0.00 0.00 46 1017.0
20260831024635 15 132 3.2 3.2 0.00 0.00 0.00 45 1017.2
20260831024133 16 139 3.2 3.2 0.00 0.00 0.00 45 1017.0
20260831023632 16 0 1.6 6.4 0.00 0.00 0.00 41 1016.7
20260831023132 16 297 4.8 11.3 0.00 0.00 0.00 41 1016.8
20260831022627 16 288 3.2 4.8 0.00 0.00 0.00 41 1016.8
20260831022122 16 273 6.4 8.0 0.00 0.00 0.00 40 1017.1
20260831021620 17 77 1.6 6.4 0.00 0.00 0.00 41 1017.0
20260831021116 17 314 6.4 8.0 0.00 0.00 0.00 40 1016.9
20260831020612 17 277 1.6 12.9 0.00 0.00 0.00 39 1016.6
20260831020107 17 326 3.2 11.3 0.00 0.00 0.00 38 1016.9
20260831015603 18 263 11.3 11.3 0.00 0.00 0.00 38 1016.8
20260831015057 18 268 8.0 14.5 0.00 0.00 0.00 37 1016.6
20260831014552 18 287 4.8 12.9 0.00 0.00 0.00 37 1016.8
20260831014047 18 272 8.0 12.9 0.00 0.00 0.00 36 1016.6
20260831013543 18 307 11.3 16.1 0.00 0.00 0.00 36 1016.5
20260831013037 19 280 8.0 16.1 0.00 0.00 0.00 35 1016.6
20260831012532 19 299 8.0 12.9 0.00 0.00 0.00 36 1016.7
20260831012032 19 253 11.3 17.7 0.00 0.00 0.00 35 1016.6
20260831011527 20 291 4.8 9.7 0.00 0.00 0.00 35 1016.6
20260831011022 20 274 8.0 14.5 0.00 0.00 0.00 35 1016.8
20260831010523 19 314 9.7 20.9 0.00 0.00 0.00 35 1016.6
20260831010019 20 275 6.4 16.1 0.00 0.00 0.00 34 1016.7
20260831005520 20 309 8.0 12.9 0.00 0.00 0.00 34 1016.5
20260831005019 20 222 4.8 12.9 0.00 0.00 0.00 34 1016.5
20260831004515 20 258 12.9 16.1 0.00 0.00 0.00 34 1016.8
20260831004010 20 275 12.9 29.0 0.00 0.00 0.00 34 1016.7
20260831003506 20 307 6.4 17.7 0.00 0.00 0.00 34 1016.8
20260831003001 20 356 14.5 24.1 0.00 0.00 0.00 33 1016.6
20260831002500 20 296 11.3 22.5 0.00 0.00 0.00 33 1016.7
20260831001955 20 330 8.0 24.1 0.00 0.00 0.00 33 1016.2
20260831001450 20 319 6.4 19.3 0.00 0.00 0.00 34 1016.5
20260831000948 20 277 8.0 24.1 0.00 0.00 0.00 33 1016.5
20260831000443 20 275 14.5 24.1 0.00 0.00 0.00 32 1016.6
20260830235941 20 311 8.0 19.3 0.00 0.00 0.00 33 1016.5
20260830235436 20 286 6.4 20.9 0.00 0.00 0.00 34 1016.6
20260830234932 20 15 8.0 22.5 0.00 0.00 0.00 33 1016.6
20260830234427 20 298 8.0 19.3 0.00 0.00 0.00 32 1016.5
20260830233923 21 330 9.7 11.3 0.00 0.00 0.00 33 1016.5
20260830233418 21 270 11.3 22.5 0.00 0.00 0.00 33 1016.4
20260830232913 20 259 9.7 17.7 0.00 0.00 0.00 34 1016.5
20260830232409 20 292 8.0 17.7 0.00 0.00 0.00 33 1016.5
20260830231906 20 268 8.0 14.5 0.00 0.00 0.00 34 1016.4
20260830231401 20 298 11.3 12.9 0.00 0.00 0.00 34 1016.5
20260830230900 20 313 4.8 20.9 0.00 0.00 0.00 34 1016.4
20260830230355 20 249 4.8 14.5 0.00 0.00 0.00 34 1016.4
20260830225854 20 280 14.5 20.9 0.00 0.00 0.00 33 1016.8
20260830225350 20 315 12.9 27.4 0.00 0.00 0.00 33 1016.5
20260830224844 20 290 4.8 14.5 0.00 0.00 0.00 32 1016.6
20260830224338 20 265 19.3 32.2 0.00 0.00 0.00 33 1016.4
20260830223836 21 320 11.3 27.4 0.00 0.00 0.00 32 1016.1
20260830223332 21 287 6.4 16.1 0.00 0.00 0.00 32 1016.4
20260830222831 20 318 8.0 17.7 0.00 0.00 0.00 32 1016.6
20260830222326 21 279 14.5 20.9 0.00 0.00 0.00 31 1016.1
20260830221821 21 266 9.7 17.7 0.00 0.00 0.00 32 1016.5
20260830221318 21 336 9.7 16.1 0.00 0.00 0.00 33 1016.5
20260830220812 21 277 12.9 20.9 0.00 0.00 0.00 33 1016.8
20260830220312 21 264 4.8 16.1 0.00 0.00 0.00 35 1016.9
20260830215810 21 346 8.0 11.3 0.00 0.00 0.00 33 1016.6
20260830215306 20 299 8.0 20.9 0.00 0.00 0.00 35 1016.6
20260830214800 20 296 8.0 16.1 0.00 0.00 0.00 36 1016.6
20260830214255 19 264 8.0 20.9 0.00 0.00 0.00 36 1016.7
20260830213754 19 281 8.0 14.5 0.00 0.00 0.00 36 1016.6
20260830213249 18 295 11.3 14.5 0.00 0.00 0.00 36 1016.8
20260830212745 18 350 4.8 17.7 0.00 0.00 0.00 35 1016.6
20260830212241 18 243 8.0 17.7 0.00 0.00 0.00 36 1016.7
20260830211740 19 3 4.8 17.7 0.00 0.00 0.00 35 1016.8
20260830211239 20 266 8.0 17.7 0.00 0.00 0.00 36 1016.7
20260830210736 20 255 3.2 25.7 0.00 0.00 0.00 35 1016.8
20260830210234 20 246 6.4 16.1 0.00 0.00 0.00 36 1016.7
20260830205732 20 41 3.2 12.9 0.00 0.00 0.00 34 1017.0
20260830205227 20 289 8.0 16.1 0.00 0.00 0.00 35 1016.6
20260830204722 20 297 8.0 16.1 0.00 0.00 0.00 35 1016.9
20260830204221 20 255 3.2 20.9 0.00 0.00 0.00 37 1017.0
20260830203717 19 263 16.1 46.7 0.00 0.00 0.00 34 1016.8
20260830203213 18 272 9.7 24.1 0.00 0.00 0.00 35 1017.0
20260830202712 18 270 9.7 27.4 0.00 0.00 0.00 35 1017.0
20260830202208 18 277 4.8 14.5 0.00 0.00 0.00 35 1016.8
20260830201707 18 228 3.2 16.1 0.00 0.00 0.00 38 1016.9
20260830201202 18 264 12.9 24.1 0.00 0.00 0.00 35 1016.8
20260830200658 18 280 9.7 27.4 0.00 0.00 0.00 35 1016.8
20260830200157 18 188 3.2 27.4 0.00 0.00 0.00 35 1016.9
20260830195652 18 285 8.0 16.1 0.00 0.00 0.00 36 1016.9
20260830195150 18 289 8.0 22.5 0.00 0.00 0.00 35 1016.9
20260830194650 18 261 8.0 24.1 0.00 0.00 0.00 36 1016.9
20260830194150 18 348 3.2 16.1 0.00 0.00 0.00 36 1016.9
20260830193644 17 239 8.0 19.3 0.00 0.00 0.00 37 1016.8
20260830193139 18 281 11.3 20.9 0.00 0.00 0.00 35 1017.0
20260830192634 18 6 6.4 20.9 0.00 0.00 0.00 36 1017.0
20260830192129 18 253 9.7 11.3 0.00 0.00 0.00 37 1017.1
20260830191624 17 286 3.2 22.5 0.00 0.00 0.00 38 1017.1
20260830191119 17 189 8.0 24.1 0.00 0.00 0.00 38 1017.2
20260830190610 17 278 11.3 17.7 0.00 0.00 0.00 39 1017.0
20260830190110 17 292 12.9 17.7 0.00 0.00 0.00 39 1017.2
20260830185603 17 248 4.8 24.1 0.00 0.00 0.00 39 1017.1
20260830185059 17 249 4.8 8.0 0.00 0.00 0.00 41 1017.4
20260830184557 17 248 3.2 14.5 0.00 0.00 0.00 41 1017.5
20260830184052 17 297 6.4 11.3 0.00 0.00 0.00 40 1017.2
20260830183547 17 231 4.8 17.7 0.00 0.00 0.00 41 1017.6
20260830183043 16 234 11.3 12.9 0.00 0.00 0.00 44 1017.7
20260830182538 16 319 6.4 12.9 0.00 0.00 0.00 45 1017.8
20260830182034 16 239 11.3 16.1 0.00 0.00 0.00 43 1017.7
20260830181531 16 164 8.0 20.9 0.00 0.00 0.00 44 1017.8
20260830181030 16 162 4.8 24.1 0.00 0.00 0.00 44 1018.0
20260830180529 16 191 14.5 20.9 0.00 0.00 0.00 45 1017.7
20260830180028 16 286 14.5 19.3 0.00 0.00 0.00 46 1017.9
20260830175528 16 268 11.3 22.5 0.00 0.00 0.00 45 1017.9
20260830175023 16 215 12.9 25.7 0.00 0.00 0.00 46 1017.8
20260830174519 16 245 11.3 22.5 0.00 0.00 0.00 45 1017.9
20260830174014 16 217 6.4 19.3 0.00 0.00 0.00 47 1018.1
20260830173509 15 247 8.0 17.7 0.00 0.00 0.00 47 1017.9
20260830173010 15 278 1.6 12.9 0.00 0.00 0.00 47 1017.9
20260830172506 16 231 9.7 11.3 0.00 0.00 0.00 46 1018.0
20260830172002 16 342 11.3 12.9 0.00 0.00 0.00 47 1018.1
20260830171457 16 285 9.7 17.7 0.00 0.00 0.00 48 1018.0
20260830170957 15 280 11.3 14.5 0.00 0.00 0.00 50 1018.1
20260830170452 15 220 0.0 9.7 0.00 0.00 0.00 50 1018.0
20260830165950 15 284 8.0 11.3 0.00 0.00 0.00 50 1018.1
20260830165447 14 267 6.4 16.1 0.00 0.00 0.00 50 1018.0
20260830164942 15 296 4.8 16.1 0.00 0.00 0.00 49 1018.3
20260830164438 15 260 6.4 11.3 0.00 0.00 0.00 50 1018.1
20260830163934 15 270 9.7 11.3 0.00 0.00 0.00 48 1018.0
20260830163430 15 198 4.8 8.0 0.00 0.00 0.00 50 1018.0
20260830162929 15 270 0.0 9.7 0.00 0.00 0.00 51 1018.0
20260830162426 14 14 6.4 9.7 0.00 0.00 0.00 52 1017.9
20260830161925 14 289 3.2 9.7 0.00 0.00 0.00 51 1018.3
20260830161425 15 309 4.8 9.7 0.00 0.00 0.00 50 1018.1
20260830160920 14 235 3.2 8.0 0.00 0.00 0.00 53 1018.2
20260830160417 13 289 3.2 8.0 0.00 0.00 0.00 55 1018.2
20260830155911 13 266 0.0 4.8 0.00 0.00 0.00 56 1018.2
20260830155408 13 308 3.2 6.4 0.00 0.00 0.00 57 1018.2
20260830154903 13 255 0.0 6.4 0.00 0.00 0.00 55 1018.3
20260830154358 12 70 3.2 4.8 0.00 0.00 0.00 57 1018.3
20260830153855 12 93 4.8 6.4 0.00 0.00 0.00 58 1018.3
20260830153350 12 23 4.8 4.8 0.00 0.00 0.00 59 1018.5
20260830152849 12 32 0.0 6.4 0.00 0.00 0.00 58 1018.6
20260830152344 12 28 6.4 6.4 0.00 0.00 0.00 56 1018.6
20260830151838 13 19 3.2 6.4 0.00 0.00 0.00 55 1018.2
20260830151337 12 56 3.2 8.0 0.00 0.00 0.00 58 1018.5
20260830150833 12 93 4.8 9.7 0.00 0.00 0.00 58 1018.2
20260830150332 12 99 6.4 9.7 0.00 0.00 0.00 59 1018.5
20260830145827 12 75 4.8 4.8 0.00 0.00 0.00 58 1018.6
20260830145322 11 90 8.0 8.0 0.00 0.00 0.00 60 1018.3
20260830144817 11 66 1.6 6.4 0.00 0.00 0.00 62 1018.7
20260830144313 11 107 4.8 6.4 0.00 0.00 0.00 64 1018.3
20260830143809 10 354 6.4 6.4 0.00 0.00 0.00 64 1018.1
20260830143308 11 64 4.8 6.4 0.00 0.00 0.00 64 1018.0
20260830142803 12 173 0.0 1.6 0.00 0.00 0.00 60 1018.0
20260830142258 12 273 4.8 4.8 0.00 0.00 0.00 61 1018.2
20260830141753 11 78 3.2 6.4 0.00 0.00 0.00 63 1018.2
20260830141248 11 96 4.8 4.8 0.00 0.00 0.00 63 1018.1
20260830140743 10 98 1.6 3.2 0.00 0.00 0.00 64 1018.1
20260830140238 10 346 0.0 0.0 0.00 0.00 0.00 66 1018.0
20260830135732 9 35 1.6 3.2 0.00 0.00 0.00 70 1018.1
20260830135228 8 106 0.0 1.6 0.00 0.00 0.00 72 1018.0
20260830134723 7 123 4.8 4.8 0.00 0.00 0.00 72 1018.0
20260830134218 7 99 3.2 8.0 0.00 0.00 0.00 71 1018.0
20260830133714 7 90 4.8 6.4 0.00 0.00 0.00 72 1017.8
20260830133209 7 83 4.8 6.4 0.00 0.00 0.00 73 1017.9
20260830132659 7 106 4.8 6.4 0.00 0.00 0.00 72 1017.8
20260830132155 7 78 3.2 4.8 0.00 0.00 0.00 71 1017.6
20260830131654 7 66 1.6 3.2 0.00 0.00 0.00 71 1017.8
20260830131148 7 126 0.0 4.8 0.00 0.00 0.00 70 1017.7
20260830130648 7 194 0.0 3.2 0.00 0.00 0.00 70 1017.7
20260830130143 8 69 1.6 4.8 0.00 0.00 0.00 70 1017.6
20260830125643 8 105 3.2 4.8 0.00 0.00 0.00 70 1017.4
20260830125138 8 90 3.2 4.8 0.00 0.00 0.00 67 1017.4
20260830124636 7 112 4.8 4.8 0.00 0.00 0.00 71 1017.4
20260830124131 8 98 1.6 6.4 0.00 0.00 0.00 69 1017.5
20260830123628 8 131 1.6 4.8 0.00 0.00 0.00 68 1017.2
20260830123123 8 96 4.8 8.0 0.00 0.00 0.00 66 1017.4
20260830122621 8 121 6.4 8.0 0.00 0.00 0.00 66 1017.6
20260830122116 8 111 1.6 4.8 0.00 0.00 0.00 67 1017.6
20260830121612 8 106 6.4 9.7 0.00 0.00 0.00 66 1017.6
20260830121111 8 75 4.8 6.4 0.00 0.00 0.00 66 1017.5
20260830120606 9 90 3.2 6.4 0.00 0.00 0.00 62 1017.4
20260830115559 10 105 3.2 3.2 0.00 0.00 0.00 60 1017.6
20260830115054 10 270 6.4 8.0 0.00 0.00 0.00 59 1017.4
20260830114551 10 248 0.0 11.3 0.00 0.00 0.00 58 1017.6
20260830114050 10 234 9.7 12.9 0.00 0.00 0.00 57 1017.5
20260830113545 10 213 4.8 8.0 0.00 0.00 0.00 59 1017.2
20260830113041 10 297 1.6 6.4 0.00 0.00 0.00 58 1017.5
20260830112536 10 171 0.0 4.8 0.00 0.00 0.00 58 1017.6
20260830112032 10 187 0.0 4.8 0.00 0.00 0.00 58 1017.6
20260830111528 10 165 0.0 3.2 0.00 0.00 0.00 58 1017.6
20260830111024 10 174 1.6 4.8 0.00 0.00 0.00 57 1017.2
20260830110523 10 160 0.0 3.2 0.00 0.00 0.00 57 1017.7
20260830110019 10 168 1.6 4.8 0.00 0.00 0.00 57 1017.4
20260830105514 10 180 4.8 6.4 0.00 0.00 0.00 57 1017.4
20260830105010 10 150 3.2 3.2 0.00 0.00 0.00 55 1017.4
20260830104507 10 180 3.2 3.2 0.00 0.00 0.00 57 1017.4
20260830104002 10 90 1.6 6.4 0.00 0.00 0.00 57 1017.2
20260830103457 11 54 1.6 4.8 0.00 0.00 0.00 56 1017.2
20260830102955 11 144 3.2 6.4 0.00 0.00 0.00 53 1017.0
20260830102450 11 283 6.4 17.7 0.00 0.00 0.00 52 1016.9
20260830101947 11 205 9.7 12.9 0.00 0.00 0.00 52 1016.9
20260830101442 11 249 0.0 8.0 0.00 0.00 0.00 53 1016.9
20260830100941 11 266 4.8 9.7 0.00 0.00 0.00 54 1017.0
20260830100441 10 204 6.4 6.4 0.00 0.00 0.00 56 1016.9
20260830095939 10 232 0.0 4.8 0.00 0.00 0.00 57 1016.9
20260830095436 10 90 1.6 3.2 0.00 0.00 0.00 60 1017.0
20260830094931 10 123 1.6 6.4 0.00 0.00 0.00 63 1017.2
20260830094427 10 98 6.4 6.4 0.00 0.00 0.00 60 1017.1
20260830093923 10 98 3.2 6.4 0.00 0.00 0.00 56 1017.0
20260830093418 11 0 1.6 1.6 0.00 0.00 0.00 52 1017.0
20260830092913 11 95 3.2 4.8 0.00 0.00 0.00 53 1017.1
20260830092409 11 159 4.8 4.8 0.00 0.00 0.00 50 1017.0
20260830091905 11 99 0.0 8.0 0.00 0.00 0.00 51 1016.9
20260830091400 11 177 3.2 4.8 0.00 0.00 0.00 49 1016.8
20260830090858 12 255 1.6 4.8 0.00 0.00 0.00 48 1017.1
20260830090354 11 114 1.6 6.4 0.00 0.00 0.00 51 1017.0
20260830085854 11 107 4.8 6.4 0.00 0.00 0.00 54 1017.1
20260830085349 11 74 0.0 4.8 0.00 0.00 0.00 53 1017.0
20260830084845 12 101 3.2 3.2 0.00 0.00 0.00 55 1017.1
20260830084340 12 165 0.0 3.2 0.00 0.00 0.00 54 1017.0
20260830083835 12 285 3.2 4.8 0.00 0.00 0.00 50 1016.9
20260830083331 12 200 0.0 6.4 0.00 0.00 0.00 55 1017.0
20260830082831 12 145 1.6 3.2 0.00 0.00 0.00 58 1016.9
20260830082326 12 90 0.0 3.2 0.00 0.00 0.00 57 1016.8
20260830081821 12 75 3.2 3.2 0.00 0.00 0.00 56 1016.7
20260830081320 12 66 0.0 3.2 0.00 0.00 0.00 53 1016.8
20260830080815 12 63 3.2 3.2 0.00 0.00 0.00 52 1016.6
20260830080312 12 160 0.0 1.6 0.00 0.00 0.00 50 1016.7
20260830075810 12 60 0.0 1.6 0.00 0.00 0.00 50 1016.6
20260830075307 13 69 0.0 1.6 0.00 0.00 0.00 50 1016.7
20260830074801 13 297 0.0 1.6 0.00 0.00 0.00 48 1016.5
20260830074257 13 90 0.0 4.8 0.00 0.00 0.00 49 1016.5
20260830073753 13 180 1.6 1.6 0.00 0.00 0.00 51 1016.6
20260830073249 12 240 1.6 3.2 0.00 0.00 0.00 51 1016.4
20260830072748 12 154 0.0 3.2 0.00 0.00 0.00 54 1016.4
20260830072244 12 65 3.2 8.0 0.00 0.00 0.00 58 1016.5
20260830071739 12 55 3.2 6.4 0.00 0.00 0.00 62 1016.1
20260830071238 12 101 4.8 4.8 0.00 0.00 0.00 60 1016.0
20260830070737 12 63 6.4 8.0 0.00 0.00 0.00 68 1016.6
20260830070232 11 98 6.4 8.0 0.00 0.00 0.00 70 1016.4
20260830065731 12 78 4.8 8.0 0.00 0.00 0.00 70 1016.1
20260830065226 12 101 4.8 8.0 0.00 0.00 0.00 69 1016.4
20260830064724 12 98 6.4 6.4 0.00 0.00 0.00 64 1016.4
20260830064220 12 93 4.8 9.7 0.00 0.00 0.00 66 1016.4
20260830063714 12 125 0.0 9.7 0.00 0.00 0.00 70 1016.5
20260830063213 12 103 4.8 11.3 0.00 0.00 0.00 70 1016.2
20260830062708 12 99 9.7 11.3 0.00 0.00 0.00 67 1016.4
20260830062202 12 112 4.8 6.4 0.00 0.00 0.00 67 1016.5
20260830061656 12 108 4.8 11.3 0.00 0.00 0.00 67 1016.0
20260830061152 12 76 4.8 8.0 0.00 0.00 0.00 66 1015.7
20260830060649 12 131 3.2 3.2 0.00 0.00 0.00 67 1016.0
20260830060145 12 107 4.8 9.7 0.00 0.00 0.00 67 1015.9
20260830055640 12 82 3.2 9.7 0.00 0.25 0.25 66 1015.7
20260830055137 12 109 12.9 14.5 0.00 0.25 0.25 65 1015.9
20260830054631 12 119 6.4 17.7 0.00 0.25 0.25 65 1015.8
20260830054127 12 70 4.8 14.5 0.00 0.25 0.25 62 1015.7
20260830053622 13 108 6.4 8.0 0.00 0.25 0.25 59 1016.2
20260830053122 13 95 4.8 12.9 0.00 0.25 0.25 60 1015.9